STARLINK-1672, 46537

Orbit data source: Space-Track

STARLINK-1672, 46537 is a payload satellite owned by SpaceX/Seattle (US) in LEO that was launched on Tue, 06 Oct 2020 UTC via an FALCON 9 launch vehicle from the Air Force Eastern Test Range (AFETR). Payload-class satellites include a variety of spacecraft equipped with specific instruments for various scientific and technological missions. These include communications satellites like Starlink; space stations such as the ISS; scientific satellites like the Hubble; Earth observation satellites from companies like Planet Labs, Umbra, and HawkEye 360; GPS; miniature CubeSats for education and research; and military/defense satellites.

Loading next visibility...
Identifier
46537, 2020-070F
Orbit
LEO
Country
Flag of USUS
Related business
Manufacturer
SpaceX/Seattle
Mission
Partially operational Commercial Communications
Bus & Motor
STARLINK, Unknown motor
Mass
260 kg wet, ~248 kg dry
Launch date (UTC)
2020-10-06 (6 years ago)
Launch vehicle
FALCON 9
Launch site
Air Force Eastern Test Range (AFETR)
Object type
Payload
Rocket body
Debris
Shape & HBR
Box + 1 Pan, 10.1 m
Radar Cross Section
13.562 m², Large (>1 m²)

Expand to show TLE details & history
Last TLE update: 10 hours ago

TLE from 10 hours ago
0 STARLINK-1672
1 46537U 20070F   26163.84344414  .00057426  00000-0  63894-3 0  9991
2 46537  53.0448  37.2812 0003226  77.5320 282.6054 15.62328741314869
Epoch: 2026-06-12T20:14Z
TLE epoch observation values (Epoch: 2026-06-12T20:14:33.573Z)
Latitude
-0.00003°
Longitude
-167.52578°
Altitude
381.357 km
Speed
7.683 km/s
True Right ascension
02h 29m 07s
True Declination
0° 00' 00"
Sunlit
Object was in daylight at epoch
Visualization orbit readout
Latitude
Unknown
Longitude
Unknown
Altitude
Unknown
Speed
Unknown
Apparent Right ascension
Unknown
Apparent Declination
Unknown
Sunlit
N/A
Visualization observer readout
Local Sidereal Time
16:30:39
Azimuth
Unknown
Elevation
Unknown
Doppler factor
Unknown
Orbital elements
Apogee altitude
383.392 km
Perigee altitude
379.03 km
Semi-major axis
6,759.348 km
Eccentricity
0.00032
Inclination
53.0448°
RAAN
37.2812°
Arg. of periapsis
77.532°
True anomaly
282.56932°
Mean anomaly
282.6054°
Eccentric anomaly
282.58736°
Mean motion
3.90558 °/min
Orbital period
92.18 mins
BSTAR
0.00063894
Loading maneuver chart data...
Computing Atmospheric mass density...

Documentation

Showing up to 5 results
|